[[{"header":{"parameterUnit":"m.s-1","parameterCategory":1,"la1":30.2991,"la2":30.254,"lo1":-89.0895,"lo2":-89.0444,"dy":0.0017,"dx":0.0017,"nx":28,"ny":28,"refTime":"2023-10-25T21:00:00:Z","depth":0,"parameterNumber":2,"parameterNumberName":"U-component_of_WINDS"},"data":[0,0,0,0,0,0,0,0,0,0,0,0,0,0,0,0,0,0,0,0,0,0,0,0,0,0,0,0,0,0,0,0,0,0,0,0,0,0,0,0,0,0,0,0,0,0,0,0,0,0,0,0,0,0,0,0,0,0,-5.395,-5.395,0,-5.3998,-5.3999,-5.3999,-5.3881,-5.3877,-5.3874,-5.387,-5.3919,-5.3924,-5.3928,0,0,0,0,0,0,0,0,0,0,0,0,0,-5.3756,-5.376,-5.3949,-5.395,-5.3951,-5.3998,-5.3999,-5.3999,-5.3882,-5.3877,-5.3873,-5.3868,-5.3917,-5.3923,-5.3929,0,0,0,0,0,0,0,0,0,0,0,0,0,-5.3826,-5.3761,-5.3949,-5.3898,-5.3894,-5.3998,-5.3999,-5.3999,-5.3883,-5.3877,-5.3872,-5.3866,-5.3916,-5.3923,-5.393,-5.4086,0,0,-5.3952,-5.3955,0,0,0,0,0,0,0,0,-5.3822,-5.3833,-5.3905,-5.3902,-5.3897,-5.3928,-5.3948,-5.4028,-5.3884,-5.3887,-5.387,-5.3864,-5.3926,-5.3932,-5.3954,-5.4088,-5.409,-5.3952,-5.3957,-5.396,-5.3962,0,0,0,0,0,0,0,-5.3817,-5.383,-5.3969,-5.3906,-5.3901,-5.3872,-5.3876,-5.3963,-5.3937,-5.3886,-5.3878,-5.3885,-5.3923,-5.3947,-5.3954,-5.4091,-5.3952,-5.3958,-5.3963,-5.3966,-5.4357,-5.4363,0,0,0,0,0,0,-5.3819,-5.3827,-5.3967,-5.397,-5.3845,-5.388,-5.3885,-5.3924,-5.3936,-5.3933,-5.389,-5.3879,-5.3938,-5.3946,-5.3955,-5.4138,-5.396,-5.3966,-5.397,-5.4351,-5.4358,-5.4365,0,0,0,0,0,0,-5.3815,-5.3832,-5.3965,-5.3896,-5.3911,-5.389,-5.3934,-5.3928,-5.3951,-5.3939,-5.3934,-5.3919,-5.3934,-5.3945,-5.4054,-5.4138,-5.3969,-5.3976,-5.4344,-5.4353,-5.4361,-5.4506,0,0,0,0,0,0,-5.381,-5.3832,-5.389,-5.3898,-5.3915,-5.4064,-5.394,-5.3932,-5.3964,-5.3951,-5.3965,-5.3962,-5.393,-5.4044,-5.4062,-5.4145,-5.3982,-5.4336,-5.4348,-5.4358,-5.4494,-5.4519,-5.4541,0,0,0,0,0,-5.3804,-5.3929,-5.3894,-5.3912,-5.3988,-5.4069,-5.4078,-5.4039,-5.3971,-5.403,-5.4023,-5.3961,-5.4128,-5.4057,-5.4075,-5.4162,-5.433,-5.4344,-5.4358,-5.4483,-5.4514,-5.4541,0,0,0,0,0,0,-5.393,-5.3929,-5.389,-5.4022,-5.4047,-5.4048,-5.4121,-5.4073,-5.4117,-5.4103,-5.4053,-5.4057,-5.4176,-5.418,-5.4101,-5.4314,-5.4217,-5.4235,-5.4307,-5.4336,-5.4359,-5.4354,-5.3988,0,0,0,0,0,-5.3974,-5.404,-5.4035,-5.4152,-5.4166,-5.4143,-5.4176,-5.4144,-5.4167,-5.4177,-5.4177,-5.4202,-5.426,-5.4298,-5.4351,-5.4495,-5.4496,-5.4565,-5.4588,-5.4608,-5.4623,-5.47,-5.473,-5.441,-5.441,-5.4409,0,0,-5.4064,-5.4071,-5.4115,-5.4178,-5.4192,-5.4262,-5.4151,-5.4229,-5.4279,-5.4188,-5.4291,-5.4293,-5.4318,-5.4445,-5.4502,-5.4452,-5.4712,-5.4625,-5.4641,-5.4645,-5.4717,-5.4747,-5.4774,-5.4419,-5.4417,-5.4416,0,0,-5.4262,-5.4276,-5.4374,-5.4392,-5.4417,-5.4401,-5.4425,-5.4436,-5.4433,-5.4536,-5.447,-5.453,-5.463,-5.465,-5.4674,-5.4885,-5.483,-5.4904,-5.5025,-5.5101,-5.5126,-5.5148,-5.5222,-5.525,-5.4919,-5.492,-5.492,0,-5.4371,-5.4472,-5.4431,-5.4513,-5.4542,-5.4465,-5.4565,-5.4585,-5.4626,-5.4648,-5.4593,-5.4718,-5.4729,-5.4861,-5.4912,-5.4935,-5.496,-5.49,-5.5126,-5.5148,-5.5168,-5.5238,-5.5266,-5.4928,-5.4927,-5.4927,-5.4926,0,-5.4603,-5.4675,-5.4752,-5.4794,-5.4833,-5.4924,-5.4896,-5.494,-5.4907,-5.4897,-5.5004,-5.5015,-5.5069,-5.5098,-5.5066,-5.5226,-5.5195,-5.5134,-5.5035,-5.5208,-5.5272,-5.5299,-5.4941,-5.4938,-5.4935,-5.4933,0,0,-5.4879,-5.49,-5.4928,-5.4947,-5.4971,-5.5025,-5.5114,-5.5167,-5.5205,-5.5238,-5.531,-5.5399,-5.5343,-5.537,-5.534,-5.5407,-5.5573,-5.5338,-5.5338,-5.538,-5.5749,-5.5793,-5.5824,-5.5538,-5.5543,-5.5547,-5.5747,0,-5.5074,-5.5225,-5.5192,-5.534,-5.5406,-5.5336,-5.5413,-5.5436,-5.543,-5.5486,-5.5479,-5.5542,-5.5465,-5.5481,-5.5544,-5.5539,-5.5646,-5.5525,-5.5604,-5.5607,-5.5597,-5.5858,-5.5904,-5.6092,-5.5772,-5.5776,-5.5779,0,-5.532,-5.5362,-5.5518,-5.5532,-5.5559,-5.5628,-5.5675,-5.573,-5.5755,-5.5746,-5.5779,-5.5736,-5.5824,-5.5728,-5.5848,-5.5767,-5.5798,-5.5801,-5.5807,-5.581,-5.5701,-5.5867,-5.615,-5.6178,-5.5819,-5.5816,-5.5813,0,-5.5503,-5.56,-5.5705,-5.5724,-5.5744,-5.5794,-5.5805,-5.5825,-5.586,-5.5902,-5.5924,-5.5976,-5.6004,-5.6045,-5.6018,-5.595,-5.6144,-5.6044,-5.6138,-5.6139,-5.6179,-5.6176,-5.6469,-5.6204,-5.6203,-5.6203,-5.6202,0,-5.5722,-5.582,-5.5788,-5.5852,-5.596,-5.5923,-5.603,-5.6033,-5.6052,-5.6116,-5.606,-5.6122,-5.6084,-5.6143,-5.6123,-5.6226,-5.6239,-5.6234,-5.6227,-5.6238,-5.6238,-5.6255,-5.624,-5.621,-5.6209,-5.6207,-5.6206,0,-5.5943,-5.5926,-5.6036,-5.6047,-5.6053,-5.6131,-5.6141,-5.6201,-5.6193,-5.6275,-5.6292,-5.6279,-5.6346,-5.6324,-5.6396,-5.6382,-5.6513,-5.649,-5.6504,-5.6497,-5.6592,-5.6582,-5.6903,-5.6943,-5.6655,-5.6658,-5.666,0,-5.6083,-5.6156,-5.6176,-5.6215,-5.6231,-5.6295,-5.633,-5.6298,-5.6337,-5.6374,-5.643,-5.6492,-5.654,-5.665,-5.6646,-5.6701,-5.6678,-5.6788,-5.6686,-5.6695,-5.6678,-5.6673,-5.668,-5.6806,-5.681,-5.6812,-5.6815,0,-5.6331,-5.632,-5.6374,-5.6426,-5.647,-5.651,-5.6543,-5.6579,-5.6549,-5.6597,-5.6664,-5.6702,-5.6776,-5.6838,-5.6888,-5.6899,-5.6853,-5.6848,-5.6872,-5.6882,-5.6886,-5.6883,-5.6556,-5.6839,-5.6837,-5.6835,-5.6834,-5.6833,-5.6514,-5.6576,-5.6601,-5.6663,-5.6686,-5.672,-5.6777,-5.6777,-5.6833,-5.6891,-5.6869,-5.6948,-5.6974,-5.7037,-5.7055,-5.7116,-5.7074,-5.7109,-5.7118,-5.7127,-5.7138,-5.6879,-5.7125,-5.7125,-5.7124,-5.7123,-5.7123,0,-5.6758,-5.6771,-5.6829,-5.6879,-5.6929,-5.6883,-5.6919,-5.6963,-5.7033,-5.7061,-5.711,-5.7189,-5.725,-5.7253,-5.731,-5.7359,-5.7339,-5.7375,-5.7369,-5.7373,-5.7173,-5.7145,-5.739,-5.739,-5.739,-5.739,-5.739,-5.739,-5.6891,-5.6994,-5.6986,-5.71,-5.7113,-5.7189,-5.7214,-5.7245,-5.7268,-5.7358,-5.7409,-5.7411,-5.743,-5.7489,-5.7543,-5.7543,-5.7565,-5.7609,-5.7601,-5.7413,-5.7387,-5.7361,-5.7335,-5.7615,-5.7616,-5.7795,-5.7796,-5.7798]},{"header":{"parameterUnit":"m.s-1","parameterCategory":1,"la1":30.2991,"la2":30.254,"lo1":-89.0895,"lo2":-89.0444,"dy":0.0017,"dx":0.0017,"nx":28,"ny":28,"refTime":"2023-10-25T21:00:00:Z","depth":0,"parameterNumber":3,"parameterNumberName":"V-component_of_WINDS"},"data":[0,0,0,0,0,0,0,0,0,0,0,0,0,0,0,0,0,0,0,0,0,0,0,0,0,0,0,0,0,0,0,0,0,0,0,0,0,0,0,0,0,0,0,0,0,0,0,0,0,0,0,0,0,0,0,0,0,0,1.2061,1.2061,0,1.2101,1.2102,1.2102,1.2088,1.2087,1.2086,1.2085,1.2126,1.2128,1.213,0,0,0,0,0,0,0,0,0,0,0,0,0,1.1972,1.1974,1.2061,1.2061,1.2062,1.2101,1.2102,1.2102,1.2088,1.2087,1.2085,1.2084,1.2125,1.2127,1.213,0,0,0,0,0,0,0,0,0,0,0,0,0,1.2011,1.1974,1.2061,1.2059,1.2059,1.2101,1.2102,1.2103,1.2088,1.2087,1.2085,1.2084,1.2124,1.2127,1.213,1.2176,0,0,1.2139,1.214,0,0,0,0,0,0,0,0,1.2009,1.2015,1.2059,1.2059,1.206,1.2088,1.2086,1.2127,1.2088,1.2077,1.2085,1.2083,1.2114,1.2118,1.2129,1.2177,1.2179,1.2139,1.2141,1.2142,1.2143,0,0,0,0,0,0,0,1.2006,1.2013,1.2077,1.206,1.206,1.2057,1.2061,1.2093,1.2103,1.2078,1.2077,1.2082,1.2114,1.2126,1.2129,1.218,1.2139,1.2142,1.2144,1.2145,1.2271,1.2273,0,0,0,0,0,0,1.2003,1.2011,1.2075,1.2078,1.2031,1.206,1.2064,1.208,1.2102,1.2105,1.2083,1.2081,1.2122,1.2126,1.2131,1.2187,1.2142,1.2145,1.2147,1.227,1.2272,1.2274,0,0,0,0,0,0,1.2002,1.2009,1.2074,1.2044,1.2052,1.2063,1.2081,1.2082,1.2093,1.2106,1.2108,1.2093,1.2121,1.2127,1.2165,1.2189,1.2146,1.2149,1.2268,1.227,1.2273,1.23,0,0,0,0,0,0,1.1999,1.2009,1.2025,1.2045,1.2054,1.2107,1.2082,1.2084,1.2098,1.2096,1.2116,1.2118,1.212,1.2161,1.2168,1.2192,1.2151,1.2266,1.2269,1.2272,1.2297,1.2303,1.2308,0,0,0,0,0,1.1996,1.2031,1.2026,1.2034,1.2075,1.2108,1.2114,1.2115,1.21,1.2118,1.2127,1.2118,1.2185,1.2165,1.2173,1.2198,1.2264,1.2268,1.2272,1.2294,1.2302,1.2308,0,0,0,0,0,0,1.2013,1.2033,1.2028,1.207,1.2088,1.2106,1.2128,1.2122,1.2144,1.2141,1.2142,1.2147,1.2187,1.2196,1.2174,1.2245,1.2223,1.2228,1.2237,1.2244,1.225,1.2247,1.2154,0,0,0,0,0,1.2022,1.2047,1.2063,1.2099,1.2108,1.2117,1.2131,1.2131,1.2149,1.2157,1.2168,1.2186,1.2212,1.2228,1.2252,1.2298,1.2304,1.232,1.2325,1.233,1.2335,1.2362,1.237,1.2286,1.2285,1.2285,0,0,1.2039,1.2054,1.2069,1.2103,1.2116,1.2144,1.2123,1.2151,1.2172,1.2161,1.2199,1.2208,1.2229,1.2272,1.2291,1.2281,1.2359,1.2334,1.2338,1.234,1.2367,1.2375,1.2382,1.2288,1.2288,1.2287,0,0,1.2086,1.2099,1.2131,1.2146,1.2168,1.2174,1.2182,1.2201,1.2207,1.2245,1.2239,1.2263,1.2306,1.2322,1.2336,1.2393,1.2386,1.2401,1.243,1.2457,1.2463,1.2469,1.2491,1.2499,1.2405,1.2405,1.2405,0,1.2106,1.2146,1.2148,1.2179,1.2194,1.2187,1.2221,1.2235,1.2263,1.2274,1.2262,1.2319,1.2331,1.238,1.2394,1.2405,1.2415,1.2398,1.2462,1.2468,1.2474,1.2495,1.2503,1.2407,1.2407,1.2407,1.2406,0,1.217,1.2199,1.2222,1.2251,1.2269,1.2301,1.2309,1.2327,1.2327,1.2335,1.2375,1.2391,1.242,1.2431,1.243,1.248,1.2473,1.2461,1.2439,1.2484,1.2503,1.2511,1.241,1.2409,1.2408,1.2408,0,0,1.2226,1.2259,1.2267,1.2282,1.2306,1.2329,1.2361,1.239,1.2407,1.2427,1.2456,1.2494,1.2485,1.25,1.2501,1.2525,1.2572,1.2511,1.2512,1.2523,1.2631,1.264,1.2649,1.2568,1.2569,1.257,1.263,0,1.2276,1.2333,1.2338,1.239,1.2418,1.2413,1.2441,1.246,1.2469,1.2495,1.2504,1.2532,1.2517,1.2527,1.255,1.2561,1.2594,1.2557,1.2595,1.2596,1.2591,1.2659,1.2668,1.2723,1.2637,1.2638,1.2639,0,1.2341,1.2366,1.2421,1.2445,1.2456,1.2482,1.2511,1.2534,1.2557,1.2562,1.2581,1.258,1.2615,1.2592,1.2641,1.2616,1.2633,1.2641,1.2643,1.2647,1.2621,1.2666,1.274,1.2749,1.2651,1.265,1.2649,0,1.2379,1.2425,1.2465,1.2477,1.2506,1.2524,1.2537,1.2558,1.2576,1.2601,1.2613,1.2642,1.2658,1.268,1.2687,1.267,1.2737,1.2714,1.2744,1.2744,1.2758,1.2757,1.2837,1.2767,1.2767,1.2767,1.2767,0,1.2435,1.2469,1.2483,1.2507,1.2547,1.2552,1.2591,1.2603,1.2622,1.265,1.2647,1.2673,1.268,1.2708,1.2714,1.2755,1.2762,1.2768,1.2769,1.2769,1.2768,1.278,1.2776,1.2769,1.2768,1.2768,1.2768,0,1.2483,1.2493,1.2537,1.2561,1.2568,1.2596,1.2617,1.2642,1.2651,1.2687,1.2695,1.271,1.2743,1.2753,1.2792,1.2796,1.2845,1.2842,1.2838,1.2838,1.2868,1.2865,1.2958,1.2971,1.2892,1.2893,1.2893,0,1.2518,1.2544,1.2573,1.2591,1.2605,1.2635,1.2654,1.2661,1.2682,1.2711,1.2733,1.2765,1.2792,1.2845,1.286,1.2891,1.289,1.292,1.2894,1.2894,1.2892,1.2891,1.2894,1.2925,1.2926,1.2927,1.2927,0,1.2579,1.2584,1.2612,1.2643,1.2666,1.269,1.2713,1.2729,1.274,1.2763,1.2797,1.2818,1.286,1.2893,1.2925,1.2939,1.2936,1.2936,1.2944,1.2944,1.2941,1.2945,1.2852,1.2933,1.2933,1.2932,1.2932,1.2932,1.2623,1.2648,1.2672,1.2704,1.2723,1.2745,1.277,1.2784,1.2813,1.2848,1.2851,1.2889,1.2913,1.2956,1.2972,1.3002,1.2993,1.3005,1.3009,1.3012,1.3015,1.2936,1.3008,1.3008,1.3008,1.3007,1.3007,0,1.2686,1.2702,1.2731,1.2765,1.2791,1.2786,1.2813,1.2835,1.2868,1.2892,1.2919,1.296,1.2993,1.3012,1.3045,1.3066,1.3066,1.3075,1.3074,1.3078,1.302,1.301,1.3075,1.3075,1.3075,1.3075,1.3075,1.3075,1.2721,1.2764,1.2772,1.2824,1.284,1.2878,1.2894,1.2915,1.2935,1.2981,1.3009,1.3021,1.3043,1.3079,1.311,1.3115,1.3128,1.3138,1.3142,1.3088,1.3081,1.3075,1.3065,1.3141,1.3141,1.3197,1.3198,1.3198]}]]